TG8AKV-17 Weather Reports


Display with metric or nautical units.
time (UTC)temp
F
wind
direction
speed
MPH
gust
MPH
rain 1hr
in
rain 24hr
in
rain mn
in
humidity
%
barometer
mb
20260507051712 56 157 1.0 1.0 0.00 0.00 0.00 94 1019.0
20260507050712 57 157 1.0 1.0 0.00 0.00 0.00 94 1019.0
20260507045711 57 157 1.0 1.0 0.00 0.00 0.00 94 1019.0
20260507044711 57 157 1.0 1.0 0.00 0.00 0.00 94 1018.0
20260507043710 57 157 1.0 1.0 0.00 0.00 0.00 94 1018.0
20260507042709 57 157 1.0 1.0 0.00 0.00 0.00 94 1018.0
20260507041709 57 157 1.0 1.0 0.00 0.00 0.00 94 1018.0
20260507040708 57 157 1.0 1.0 0.00 0.00 0.00 94 1018.0
20260507035707 57 157 1.0 1.0 0.00 0.00 0.00 94 1018.0
20260507034706 57 157 1.0 1.0 0.00 0.00 0.00 94 1018.0
20260507033706 57 157 1.0 1.0 0.00 0.00 0.00 94 1018.0
20260507032705 57 157 1.0 1.0 0.00 0.00 0.00 94 1018.0
20260507031704 57 157 1.0 1.0 0.00 0.00 0.00 94 1018.0
20260507030704 57 157 1.0 1.0 0.00 0.00 0.00 95 1018.0
20260507025703 57 157 1.0 1.0 0.00 0.00 0.00 95 1018.0
20260507024702 57 157 1.0 1.0 0.00 0.00 0.00 95 1018.0
20260507023702 57 157 1.0 1.0 0.00 0.00 0.00 95 1018.0
20260507022701 57 157 1.0 1.0 0.00 0.00 0.00 95 1017.0
20260507021701 57 157 1.0 1.0 0.00 0.00 0.00 95 1017.0
20260507020700 58 157 1.0 1.0 0.00 0.00 0.00 95 1017.0
20260507015659 58 157 1.0 1.0 0.00 0.00 0.00 95 1017.0
20260507014659 58 157 1.0 1.0 0.00 0.00 0.00 95 1017.0
20260507013658 58 157 1.0 1.0 0.00 0.00 0.00 95 1017.0
20260507012658 58 157 1.0 1.0 0.00 0.00 0.00 95 1016.0
20260507011657 58 157 1.0 1.0 0.00 0.00 0.00 95 1016.0
20260507010656 58 157 1.0 1.0 0.00 0.00 0.00 95 1016.0
20260507005656 58 157 1.0 1.0 0.00 0.00 0.00 95 1016.0
20260507004655 58 157 1.0 1.0 0.00 0.00 0.00 95 1016.0
20260507003655 65 166 3.0 5.0 0.00 0.00 0.00 84 1016.0
20260507002654 65 166 3.0 5.0 0.02 0.00 0.00 84 1015.0
20260507001653 64 166 3.0 5.0 0.03 0.00 0.00 85 1015.0
20260507000653 63 166 3.0 5.0 0.02 0.00 0.00 88 1015.0
20260506235652 61 166 3.0 5.0 0.02 0.00 0.00 94 1015.0
20260506234651 61 166 3.0 5.0 0.02 0.00 0.00 93 1015.0
20260506233651 61 166 3.0 5.0 0.03 0.00 0.00 92 1015.0
20260506232650 61 166 3.0 5.0 0.03 0.00 0.00 91 1014.0
20260506231650 61 166 3.0 5.0 0.02 0.00 0.00 89 1014.0
20260506230649 61 166 3.0 5.0 0.02 0.00 0.00 89 1014.0
20260506225648 61 166 3.0 5.0 0.00 0.00 0.00 89 1014.0
20260506224648 70 180 6.0 0.0 0.00 0.00 0.00 79 1014.0
20260506223647 70 180 6.0 0.0 0.00 0.00 0.00 79 1014.0
20260506222647 69 180 5.0 0.0 0.00 0.00 0.00 83 1014.0
20260506221646 69 180 6.0 0.0 0.00 0.00 0.00 77 1014.0
20260506220645 65 155 4.0 5.0 0.00 0.00 0.00 87 1014.0
20260506215645 65 155 4.0 5.0 0.00 0.00 0.00 85 1014.0
20260506214644 65 155 4.0 5.0 0.00 0.00 0.00 86 1014.0
20260506213643 65 155 4.0 5.0 0.00 0.00 0.00 88 1014.0
20260506212643 65 155 4.0 6.0 0.00 0.00 0.00 90 1014.0
20260506211642 65 155 4.0 6.0 0.00 0.00 0.00 90 1014.0
20260506210031 74 140 9.0 0.0 0.00 0.00 0.00 70 1014.0
20260506205031 74 140 9.0 0.0 0.00 0.00 0.00 71 1014.0
20260506204030 73 140 9.0 0.0 0.00 0.00 0.00 73 1014.0
20260506203029 72 140 9.0 0.0 0.00 0.00 0.00 75 1014.0
20260506202019 69 140 9.0 0.0 0.00 0.00 0.00 79 1014.0
20260506201019 65 163 4.0 5.0 0.00 0.00 0.00 86 1015.0
20260506200018 65 163 4.0 5.0 0.00 0.00 0.00 86 1015.0
20260506195018 65 163 4.0 5.0 0.00 0.00 0.00 82 1015.0
20260506194017 65 163 4.0 5.0 0.00 0.00 0.00 82 1015.0
20260506193016 65 163 4.0 6.0 0.00 0.00 0.00 76 1015.0
20260506192016 81 140 6.0 0.0 0.00 0.00 0.00 41 1015.0
20260506191015 81 140 6.0 0.0 0.00 0.00 0.00 41 1015.0
20260506190015 76 90 11.0 0.0 0.00 0.00 0.00 35 1015.0
20260506185014 72 90 11.0 0.0 0.00 0.00 0.00 46 1015.0
20260506184013 72 90 11.0 0.0 0.00 0.00 0.00 49 1015.0
20260506183013 65 181 4.0 6.0 0.00 0.00 0.00 76 1015.0
20260506182012 81 90 11.0 0.0 0.00 0.00 0.00 25 1016.0
20260506181012 77 187 5.0 8.0 0.00 0.00 0.00 36 1016.0
20260506180011 77 187 5.0 8.0 0.00 0.00 0.00 36 1016.0
20260506175010 76 187 5.0 8.0 0.00 0.00 0.00 38 1016.0
20260506172923 75 187 5.0 8.0 0.00 0.00 0.00 43 1016.0
20260506171922 72 187 5.0 8.0 0.00 0.00 0.00 54 1016.0
20260506170922 68 187 6.0 8.0 0.00 0.00 0.00 77 1016.0
20260506165921 68 0 0.0 0.0 0.00 0.00 0.00 74 1016.0
20260506164920 68 0 0.0 0.0 0.00 0.00 0.00 75 1016.0
20260506163920 68 0 0.0 0.0 0.00 0.00 0.00 74 1016.0
20260506162919 68 0 0.0 0.0 0.00 0.00 0.00 74 1016.0
20260506161937 68 0 0.0 0.0 0.00 0.00 0.00 74 1016.0
20260506160936 68 0 0.0 0.0 0.00 0.00 0.00 74 1016.0
20260506155936 64 189 5.0 6.0 0.00 0.00 0.00 86 1016.0
20260506154935 64 189 5.0 6.0 0.00 0.00 0.00 88 1017.0
20260506153935 64 189 5.0 6.0 0.00 0.00 0.00 90 1017.0
20260506152934 59 0 0.0 0.0 0.00 0.00 0.00 85 1017.0
20260506151933 59 0 0.0 0.0 0.00 0.00 0.00 86 1017.0
20260506150933 60 197 4.0 3.0 0.00 0.00 0.00 96 1017.0
20260506145932 60 213 1.0 1.0 0.00 0.00 0.00 89 1017.0
20260506144932 63 213 1.0 1.0 0.00 0.00 0.00 84 1017.0
20260506143931 63 213 1.0 1.0 0.00 0.00 0.00 84 1017.0
20260506142930 63 213 1.0 1.0 0.00 0.00 0.00 84 1017.0
20260506141930 63 213 1.0 1.0 0.00 0.00 0.00 82 1017.0
20260506140929 63 213 2.0 1.0 0.00 0.00 0.00 80 1017.0
20260506135929 54 0 0.0 0.0 0.00 0.00 0.00 94 1017.0
20260506134928 54 0 0.0 0.0 0.00 0.00 0.00 94 1017.0
20260506133927 54 0 0.0 0.0 0.00 0.00 0.00 94 1017.0
20260506132927 54 0 0.0 0.0 0.00 0.00 0.00 94 1017.0
20260506131926 54 0 0.0 0.0 0.00 0.00 0.00 94 1017.0
20260506130926 54 0 0.0 0.0 0.00 0.00 0.00 94 1017.0
20260506125925 54 0 0.0 0.0 0.00 0.00 0.00 93 1017.0
20260506124924 54 0 0.0 0.0 0.00 0.00 0.00 93 1017.0
20260506123924 53 14 3.0 3.0 0.00 0.00 0.00 94 1017.0
20260506122923 53 14 3.0 3.0 0.00 0.00 0.00 94 1018.0
20260506121923 53 14 3.0 3.0 0.00 0.00 0.00 94 1018.0
20260506120922 53 14 3.0 3.0 0.00 0.00 0.00 94 1018.0
20260506115921 52 14 3.0 3.0 0.00 0.00 0.00 94 1018.0
20260506114921 52 14 3.0 3.0 0.00 0.00 0.00 94 1018.0
20260506113920 52 14 3.0 3.0 0.00 0.00 0.00 94 1018.0
20260506112920 52 14 3.0 3.0 0.00 0.00 0.00 94 1018.0
20260506111919 55 153 3.0 5.0 0.00 0.00 0.00 94 1018.0
20260506110919 55 153 3.0 5.0 0.00 0.00 0.00 94 1018.0
20260506105918 55 153 3.0 5.0 0.00 0.00 0.00 94 1018.0
20260506104918 55 153 3.0 5.0 0.00 0.00 0.00 93 1018.0
20260506103917 55 153 3.0 5.0 0.00 0.00 0.00 93 1017.0
20260506102916 55 153 3.0 5.0 0.00 0.00 0.00 93 1017.0
20260506101916 55 153 3.0 5.0 0.00 0.00 0.00 93 1017.0
20260506100915 55 153 3.0 5.0 0.00 0.00 0.00 93 1017.0
20260506095915 55 153 3.0 5.0 0.00 0.00 0.00 93 1017.0
20260506094914 55 153 3.0 5.0 0.00 0.00 0.00 93 1017.0
20260506093914 55 153 3.0 5.0 0.00 0.00 0.00 92 1017.0
20260506092913 55 153 3.0 5.0 0.00 0.00 0.00 92 1017.0
20260506091912 55 153 3.0 5.0 0.00 0.00 0.00 93 1017.0
20260506090912 55 153 3.0 5.0 0.00 0.00 0.00 93 1017.0
20260506085911 55 153 3.0 5.0 0.00 0.00 0.00 93 1017.0
20260506084911 55 153 3.0 5.0 0.00 0.00 0.00 92 1017.0
20260506083905 55 153 3.0 5.0 0.00 0.00 0.00 92 1017.0
20260506082905 55 153 3.0 5.0 0.00 0.00 0.00 93 1018.0
20260506081904 55 153 3.0 5.0 0.00 0.00 0.00 94 1018.0
20260506080904 55 153 3.0 5.0 0.00 0.00 0.00 94 1018.0
20260506072844 55 153 3.0 5.0 0.00 0.00 0.00 94 1018.0
20260506071843 55 153 3.0 5.0 0.00 0.00 0.00 94 1018.0
20260506070843 55 153 3.0 5.0 0.00 0.00 0.00 94 1018.0
20260506061839 55 153 3.0 5.0 0.00 0.00 0.00 94 1018.0
20260506060839 56 153 3.0 5.0 0.00 0.00 0.00 94 1018.0